[Date Prev][Date Next][Thread Prev][Thread Next] - [Date Index][Thread Index][Author Index]
2 Line ISS Keps 7-26
- Subject: [sarex] 2 Line ISS Keps 7-26
- From: "Dave Larsen PhD" <doc@xxxxxxxxxxx>
- Date: Tue, 26 Jul 2005 03:49:13 -0700
ISS
1 25544U 98067A 05207.31276620 .00009213 00000-0 73642-4 0 9958
2 25544 051.6451 060.5367 0003083 157.4370 169.9096 15.71943135381834
----
Via the sarex mailing list at AMSAT.ORG courtesy of AMSAT-NA.
To unsubscribe, send "unsubscribe sarex" to Majordomo@amsat.org
AMSAT Home